DW5656 Sevilla ES current weather conditions

sailwx.info

Wind from 094 at 7 knots gusting 17

Air temperature 23.3° C
Dewpoint 11.7° C

Last reported at 2018-Apr-20 12:08 UTC.
Time now 2018-Apr-20 12:52 UTC

Location: N 37°23' W 005°59'.
View on Google Maps.

See reports from other nearby stations

  
Tides and Currents Weather Stations Pressure Air Temp Water Temp Dewpoint Dewpoint Depression Visibility Wind Speed Wind Dir Waves Ship Positions
date/time (UTC)wind fromknots sea level pressurealtimeterstation pressurevisibilityair tempwater tempwave heightnotes
2018-Apr-20 12:08 094 7 gusting 17 23.3
2018-Apr-20 11:59 075 7 gusting 17 23.3
2018-Apr-20 11:50 081 8 gusting 17 23.3
2018-Apr-20 11:41 086 8 gusting 19 22.8
2018-Apr-20 11:32 077 9 gusting 18 22.8
2018-Apr-20 11:23 091 8 gusting 20 22.2
2018-Apr-20 11:14 079 9 gusting 18 22.2
2018-Apr-20 11:05 085 9 gusting 18 22.2
2018-Apr-20 10:56 094 10 gusting 19 21.7
2018-Apr-20 10:47 087 8 gusting 19 21.7
2018-Apr-20 10:38 090 8 gusting 16 21.7
2018-Apr-20 10:29 081 10 gusting 19 21.1
2018-Apr-20 10:20 079 10 gusting 19 21.1
2018-Apr-20 10:11 088 10 gusting 18 20.6
2018-Apr-20 10:02 088 10 gusting 18 20.6
2018-Apr-20 09:53 087 8 gusting 20 20.6
2018-Apr-20 09:44 083 10 gusting 21 20.6
2018-Apr-20 09:35 091 10 gusting 21 20.0
2018-Apr-20 09:26 080 11 gusting 20 20.6
2018-Apr-20 09:17 081 10 gusting 21 20.0
2018-Apr-20 09:08 102 11 gusting 20 19.4
2018-Apr-20 08:59 089 10 gusting 20 19.4
2018-Apr-20 08:50 091 11 gusting 22 18.9
2018-Apr-20 08:41 084 10 gusting 24 18.9
2018-Apr-20 08:32 080 8 gusting 18 18.9
2018-Apr-20 08:23 081 10 gusting 19 18.3
2018-Apr-20 08:14 092 10 gusting 19 18.3
2018-Apr-20 08:05 088 10 gusting 21 18.3
2018-Apr-20 07:56 089 9 gusting 19 17.8
2018-Apr-20 07:47 082 9 gusting 18 17.8
2018-Apr-20 07:38 087 9 gusting 19 17.8
2018-Apr-20 07:29 095 8 gusting 22 17.2
2018-Apr-20 07:20 089 8 gusting 19 17.2
2018-Apr-20 07:11 089 7 gusting 15 17.2
2018-Apr-20 07:02 089 8 gusting 14 17.2
2018-Apr-20 06:53 084 7 gusting 16 16.7
2018-Apr-20 06:44 082 8 gusting 14 16.7
2018-Apr-20 06:35 085 8 gusting 17 16.7
2018-Apr-20 06:26 087 7 gusting 16 16.1
2018-Apr-20 06:17 086 7 gusting 14 16.1
2018-Apr-20 06:08 082 7 gusting 14 16.1
2018-Apr-20 05:59 082 7 gusting 14 16.1
2018-Apr-20 05:50 085 8 gusting 13 16.1
2018-Apr-20 05:41 081 9 gusting 18 16.1
2018-Apr-20 05:32 081 9 gusting 17 16.1
2018-Apr-20 05:23 084 8 gusting 17 16.1
2018-Apr-20 05:14 082 8 gusting 17 15.6
2018-Apr-20 05:05 077 8 gusting 15 15.6
2018-Apr-20 04:56 080 9 gusting 16 15.6
2018-Apr-20 04:47 077 7 gusting 15 16.1
2018-Apr-20 04:38 076 7 gusting 14 16.1
2018-Apr-20 04:29 075 6 gusting 16 16.1
2018-Apr-20 04:20 078 6 gusting 14 16.1
2018-Apr-20 04:11 083 6 gusting 12 16.1
2018-Apr-20 04:02 078 6 gusting 13 16.1
2018-Apr-20 03:53 080 6 gusting 13 16.1
2018-Apr-20 03:44 074 6 gusting 13 16.1
2018-Apr-20 03:35 070 6 gusting 17 16.1
2018-Apr-20 03:26 074 6 gusting 12 16.1
2018-Apr-20 03:17 076 6 gusting 14 16.7
2018-Apr-20 03:08 073 6 gusting 13 16.7
2018-Apr-20 02:59 077 6 gusting 13 16.7
2018-Apr-20 02:50 079 6 gusting 12 16.7
2018-Apr-20 02:41 078 5 gusting 12 16.7
2018-Apr-20 02:32 079 4 gusting 13 16.1
2018-Apr-20 02:23 079 5 gusting 10 16.1
2018-Apr-20 02:14 065 4 gusting 7 16.1
2018-Apr-20 02:05 048 4 gusting 9 16.1
2018-Apr-20 01:56 051 4 gusting 9 16.1
2018-Apr-20 01:47 048 4 gusting 10 16.1
2018-Apr-20 01:38 052 4 gusting 12 16.1
2018-Apr-20 01:29 047 4 gusting 8 16.1
2018-Apr-20 01:20 042 5 gusting 9 16.7
2018-Apr-20 01:11 039 4 gusting 9 16.7
2018-Apr-20 01:02 044 3 gusting 9 16.7
2018-Apr-20 00:53 040 3 gusting 8 16.7
2018-Apr-20 00:44 042 2 gusting 7 17.2
2018-Apr-20 00:35 030 3 gusting 5 17.2
2018-Apr-20 00:26 032 3 gusting 6 17.2
2018-Apr-20 00:17 041 4 gusting 8 17.2
2018-Apr-20 00:08 041 4 gusting 8 17.2
2018-Apr-19 23:59 037 4 gusting 7 17.2
2018-Apr-19 23:50 038 3 gusting 7 17.2
2018-Apr-19 23:41 041 3 gusting 7 17.2
2018-Apr-19 23:32 047 3 gusting 8 17.8
2018-Apr-19 23:23 048 4 gusting 7 17.8
2018-Apr-19 23:14 051 3 gusting 9 17.8
2018-Apr-19 23:05 037 3 gusting 6 18.3
2018-Apr-19 22:56 038 4 gusting 8 18.3
2018-Apr-19 22:47 043 4 gusting 7 17.8
2018-Apr-19 22:38 048 2 gusting 7 18.3
2018-Apr-19 22:29 059 2 gusting 6 18.3
2018-Apr-19 22:20 054 3 gusting 6 18.9
2018-Apr-19 22:11 049 1 gusting 7 19.4
2018-Apr-19 22:02 069 1 gusting 4 20.0
2018-Apr-19 21:53 063 2 gusting 6 20.0
2018-Apr-19 21:44 051 3 gusting 6 20.0
2018-Apr-19 21:35 043 2 gusting 6 20.6
2018-Apr-19 21:26 058 3 gusting 5 21.1
2018-Apr-19 21:17 076 3 gusting 6 21.7
2018-Apr-19 21:08 083 2 gusting 6 21.7
2018-Apr-19 20:59 106 1 gusting 5 22.2
2018-Apr-19 20:50 098 2 gusting 5 22.2
2018-Apr-19 20:41 111 1 gusting 5 22.2
2018-Apr-19 20:32 129 0 gusting 3 22.8
2018-Apr-19 20:23 150 22.8
2018-Apr-19 20:14 150 0 gusting 2 22.8
2018-Apr-19 20:05 149 1 gusting 2 23.3
2018-Apr-19 19:56 141 2 gusting 6 23.3
2018-Apr-19 19:47 149 2 gusting 6 23.3
2018-Apr-19 19:38 143 2 gusting 5 23.3
2018-Apr-19 19:29 149 3 gusting 8 23.9
2018-Apr-19 19:20 153 3 gusting 8 23.9
2018-Apr-19 19:11 148 3 gusting 8 23.9
2018-Apr-19 19:02 156 3 gusting 6 24.4
2018-Apr-19 18:53 135 2 gusting 6 24.4
2018-Apr-19 18:44 124 4 gusting 8 25.0
2018-Apr-19 18:35 125 3 gusting 9 25.0
2018-Apr-19 18:26 108 4 gusting 8 25.0
2018-Apr-19 18:17 108 5 gusting 10 25.6
2018-Apr-19 18:08 108 5 gusting 10 25.6
2018-Apr-19 17:59 106 6 gusting 11 25.6
2018-Apr-19 17:50 106 6 gusting 14 25.6
2018-Apr-19 17:41 107 6 gusting 14 26.1
2018-Apr-19 17:32 103 7 gusting 14 26.1
2018-Apr-19 17:23 101 6 gusting 14 26.1
2018-Apr-19 17:14 099 6 gusting 13 26.7
2018-Apr-19 17:05 100 6 gusting 15 26.7
2018-Apr-19 16:56 096 8 gusting 15 26.7
2018-Apr-19 16:47 103 8 gusting 17 26.7
2018-Apr-19 16:38 105 8 gusting 15 26.7
2018-Apr-19 16:29 101 8 gusting 17 26.7
2018-Apr-19 16:20 098 7 gusting 17 26.7
2018-Apr-19 16:11 113 7 gusting 13 27.2
2018-Apr-19 16:02 089 8 gusting 14 27.2
2018-Apr-19 15:53 090 7 gusting 13 27.2
2018-Apr-19 15:44 081 8 gusting 15 27.2
2018-Apr-19 15:35 090 8 gusting 16 26.7
2018-Apr-19 15:26 083 8 gusting 13 27.2
2018-Apr-19 15:17 093 7 gusting 15 26.7
2018-Apr-19 15:08 079 7 gusting 17 26.7
2018-Apr-19 14:59 084 8 gusting 16 27.2
2018-Apr-19 14:50 075 7 gusting 18 27.2
2018-Apr-19 14:41 084 7 gusting 13 27.2
2018-Apr-19 14:32 101 8 gusting 18 26.7
2018-Apr-19 14:23 089 8 gusting 17 26.7
2018-Apr-19 14:14 089 7 gusting 15 26.7
2018-Apr-19 14:05 078 7 gusting 16 27.2
2018-Apr-19 13:56 088 7 gusting 18 26.7
2018-Apr-19 13:47 094 8 gusting 16 26.7
2018-Apr-19 13:38 090 9 gusting 16 26.7
2018-Apr-19 13:29 083 8 gusting 19 26.7
2018-Apr-19 13:20 084 8 gusting 15 26.7
2018-Apr-19 13:11 079 9 gusting 17 26.1
2018-Apr-19 13:02 082 9 gusting 17 26.7
2018-Apr-19 12:53 086 8 gusting 18 26.1
2018-Apr-19 12:44 097 9 gusting 15 26.1
2018-Apr-19 12:35 085 8 gusting 16 26.1
2018-Apr-19 12:26 091 8 gusting 19 26.1
2018-Apr-19 12:17 079 6 gusting 18 26.1
2018-Apr-19 12:08 096 6 gusting 12 26.1
2018-Apr-19 11:59 095 6 gusting 13 25.6
2018-Apr-19 11:50 091 6 gusting 16 25.6
2018-Apr-19 11:41 080 6 gusting 15 25.6
2018-Apr-19 11:32 081 7 gusting 13 25.0
2018-Apr-19 11:23 098 6 gusting 16 25.0
2018-Apr-19 11:14 090 6 gusting 11 24.4
2018-Apr-19 11:05 082 8 gusting 14 24.4
2018-Apr-19 10:56 080 7 gusting 15 23.9
2018-Apr-19 10:47 087 6 gusting 15 23.9
2018-Apr-19 10:38 086 8 gusting 13 23.3
2018-Apr-19 10:29 093 6 gusting 16 23.3
2018-Apr-19 10:20 081 7 gusting 13 22.8
2018-Apr-19 10:11 075 7 gusting 14 22.8
2018-Apr-19 10:02 080 6 gusting 14 22.2
2018-Apr-19 09:53 099 7 gusting 12 22.2
2018-Apr-19 09:44 082 7 gusting 13 22.2
2018-Apr-19 09:35 081 6 gusting 14 21.7
2018-Apr-19 09:26 081 5 gusting 11 21.7
2018-Apr-19 09:17 082 6 gusting 13 21.1
2018-Apr-19 09:08 081 6 gusting 12 21.1
2018-Apr-19 08:59 095 6 gusting 13 20.6
2018-Apr-19 08:50 092 5 gusting 13 20.0
2018-Apr-19 08:41 092 5 gusting 13 20.0
2018-Apr-19 08:32 083 7 gusting 11 19.4
2018-Apr-19 08:23 078 5 gusting 14 19.4
2018-Apr-19 08:14 077 5 gusting 9 18.9
2018-Apr-19 08:05 078 3 gusting 9 18.3
2018-Apr-19 07:56 066 3 gusting 7 18.3
2018-Apr-19 07:47 059 2 gusting 7 17.8
2018-Apr-19 07:38 041 2 gusting 5 16.7
2018-Apr-19 07:29 337 1 gusting 4 16.1
2018-Apr-19 07:20 343 2 gusting 4 16.1
2018-Apr-19 07:11 021 2 gusting 5 16.1
2018-Apr-19 07:02 004 2 gusting 4 15.6
2018-Apr-19 06:53 011 2 gusting 4 15.6
2018-Apr-19 06:44 021 3 gusting 5 15.0
2018-Apr-19 06:35 024 3 gusting 5 15.0
2018-Apr-19 06:26 359 2 gusting 6 14.4
2018-Apr-19 06:17 008 3 gusting 5 14.4
2018-Apr-19 06:08 025 3 gusting 6 14.4
2018-Apr-19 05:59 029 2 gusting 6 14.4
2018-Apr-19 05:50 035 3 gusting 6 14.4
2018-Apr-19 05:41 028 2 gusting 6 14.4
2018-Apr-19 05:32 023 2 gusting 4 14.4
2018-Apr-19 05:23 027 2 gusting 4 14.4
2018-Apr-19 05:14 026 2 gusting 4 14.4
2018-Apr-19 05:05 002 3 gusting 6 14.4
2018-Apr-19 04:56 012 3 gusting 6 14.4
2018-Apr-19 04:47 018 2 gusting 6 14.4
2018-Apr-19 04:38 007 2 gusting 4 14.4
2018-Apr-19 04:29 015 2 gusting 4 14.4
2018-Apr-19 04:20 035 2 gusting 4 14.4
2018-Apr-19 04:11 036 2 gusting 4 14.4
2018-Apr-19 04:02 043 3 gusting 7 14.4
2018-Apr-19 03:53 037 3 gusting 6 14.4
2018-Apr-19 03:44 043 3 gusting 7 14.4
2018-Apr-19 03:35 036 3 gusting 7 15.0
2018-Apr-19 03:26 034 3 gusting 6 15.0
2018-Apr-19 03:17 029 2 gusting 6 15.0
2018-Apr-19 03:08 030 2 gusting 6 15.0
2018-Apr-19 02:59 039 4 gusting 7 15.0
2018-Apr-19 02:50 045 5 gusting 9 15.0
2018-Apr-19 02:41 063 5 gusting 11 15.0
2018-Apr-19 02:32 058 4 gusting 9 15.6
2018-Apr-19 02:23 046 4 gusting 9 15.6
2018-Apr-19 02:14 041 4 gusting 9 15.6
2018-Apr-19 02:05 037 3 gusting 8 15.6
2018-Apr-19 01:56 036 4 gusting 6 15.6
2018-Apr-19 01:47 039 5 gusting 8 16.1
2018-Apr-19 01:38 037 4 gusting 11 16.1
2018-Apr-19 01:29 033 3 gusting 8 16.7
2018-Apr-19 01:20 033 2 gusting 8 16.7
2018-Apr-19 01:11 032 2 gusting 7 17.2
2018-Apr-19 01:02 038 2 gusting 5 17.2
2018-Apr-19 00:53 022 2 gusting 5 17.2
2018-Apr-19 00:44 004 2 gusting 3 17.8
2018-Apr-19 00:35 015 2 gusting 4 17.8
2018-Apr-19 00:26 011 2 gusting 4 17.8
2018-Apr-19 00:17 013 2 gusting 4 17.8
2018-Apr-19 00:08 352 2 gusting 4 17.8
2018-Apr-18 23:59 346 2 gusting 4 17.8
2018-Apr-18 23:50 347 2 gusting 4 18.3
2018-Apr-18 23:41 324 1 gusting 4 18.9
2018-Apr-18 23:32 319 1 gusting 2 19.4
2018-Apr-18 23:23 325 1 gusting 3 19.4
2018-Apr-18 23:14 334 2 gusting 4 19.4
2018-Apr-18 23:05 348 0 gusting 4 19.4
2018-Apr-18 22:56 326 19.4
2018-Apr-18 22:47 302 19.4
2018-Apr-18 22:38 284 19.4
2018-Apr-18 22:29 263 0 gusting 2 19.4
2018-Apr-18 22:20 266 1 gusting 2 20.0
2018-Apr-18 22:11 244 1 gusting 2 20.0
2018-Apr-18 22:02 236 1 gusting 5 20.0
2018-Apr-18 21:53 250 3 gusting 6 20.0
2018-Apr-18 21:44 258 3 gusting 7 20.0
2018-Apr-18 21:35 258 2 gusting 6 20.0
2018-Apr-18 21:26 241 1 gusting 7 20.6
2018-Apr-18 21:17 230 2 gusting 6 21.1
2018-Apr-18 21:08 228 3 gusting 7 21.1
2018-Apr-18 20:59 230 2 gusting 7 21.1
2018-Apr-18 20:50 231 2 gusting 5 21.1
2018-Apr-18 20:41 217 2 gusting 6 21.1
2018-Apr-18 20:32 215 2 gusting 6 21.7
2018-Apr-18 20:23 219 2 gusting 6 21.7
2018-Apr-18 20:14 226 2 gusting 6 21.7
2018-Apr-18 20:05 217 3 gusting 7 22.2
2018-Apr-18 19:56 216 4 gusting 7 22.2
2018-Apr-18 19:47 222 4 gusting 9 22.8
2018-Apr-18 19:38 216 4 gusting 7 22.8
2018-Apr-18 19:29 227 3 gusting 10 23.3
2018-Apr-18 19:20 219 3 gusting 9 23.3
2018-Apr-18 19:11 217 3 gusting 7 23.9
2018-Apr-18 19:02 214 3 gusting 8 24.4
2018-Apr-18 18:53 215 3 gusting 8 25.0
2018-Apr-18 18:44 210 2 gusting 6 25.6
2018-Apr-18 18:35 225 3 gusting 6 26.1
2018-Apr-18 18:26 216 3 gusting 7 26.1
2018-Apr-18 18:17 218 4 gusting 8 26.7
2018-Apr-18 18:08 216 4 gusting 7 26.7
2018-Apr-18 17:59 216 3 gusting 8 27.2
2018-Apr-18 17:50 223 3 gusting 7 27.8
2018-Apr-18 17:41 227 3 gusting 8 27.2
2018-Apr-18 17:32 217 3 gusting 6 27.8
2018-Apr-18 17:23 220 3 gusting 7 27.8
2018-Apr-18 17:14 228 4 gusting 9 27.8
2018-Apr-18 17:05 213 3 gusting 9 27.8
2018-Apr-18 16:56 234 2 gusting 7 28.3
2018-Apr-18 16:47 214 1 gusting 6 28.3
2018-Apr-18 16:38 167 2 gusting 7 28.9
2018-Apr-18 16:29 164 2 gusting 8 28.3
2018-Apr-18 16:20 034 2 gusting 5 28.9
2018-Apr-18 16:11 092 2 gusting 6 28.3
2018-Apr-18 16:02 125 3 gusting 6 28.3
2018-Apr-18 15:53 105 2 gusting 7 28.3
2018-Apr-18 15:44 095 1 gusting 6 28.9
2018-Apr-18 15:35 047 1 gusting 5 28.9
2018-Apr-18 15:26 087 2 gusting 5 28.9
2018-Apr-18 15:17 117 3 gusting 7 27.8
2018-Apr-18 15:08 076 3 gusting 8 27.8
2018-Apr-18 14:59 084 2 gusting 8 27.8
2018-Apr-18 14:50 338 2 gusting 4 27.8
2018-Apr-18 14:41 072 2 gusting 8 27.8
2018-Apr-18 14:32 007 1 gusting 6 27.8
2018-Apr-18 14:23 013 2 gusting 5 27.8
2018-Apr-18 14:14 118 3 gusting 9 27.2
2018-Apr-18 14:05 087 2 gusting 8 27.2
2018-Apr-18 13:56 046 3 gusting 6 27.2
2018-Apr-18 13:47 039 3 gusting 9 27.2
2018-Apr-18 13:38 012 2 gusting 7 27.2
2018-Apr-18 13:29 069 3 gusting 6 27.2
2018-Apr-18 13:20 071 3 gusting 7 26.7
2018-Apr-18 13:11 051 3 gusting 7 26.7
2018-Apr-18 13:02 071 4 gusting 9 26.7
2018-Apr-18 12:53 063 3 gusting 10 26.7
2018-Apr-18 12:44 060 4 gusting 10 26.1
2018-Apr-18 12:35 077 5 gusting 12 26.1
2018-Apr-18 12:26 068 4 gusting 10 26.1
2018-Apr-18 12:17 078 4 gusting 8 25.6
2018-Apr-18 12:08 057 4 gusting 9 25.6